User: anonymous   Login
Location: Marsån
(66.4167°N, 22.2833°E)
Time: 19:05:41
(UTC+00:00)
Language:

Cosmos 1842 Rocket - Orbit

View from above orbital plane
View from above orbital plane
View from above satellite
View from above satellite

Ground track
Ground track

The orbit data is extracted from the following two-line orbital elements,

1 17912U 87038B   24140.64117994  .00001301  00000-0  15245-3 0  9993
2 17912  82.5031 197.0568 0019828 176.8292 183.3053 14.84147680  2514
Epoch (UTC): 19 May 2024 15:23:17
Eccentricity: 0.0019828
inclination: 82.5031°
perigee height: 602 km
apogee height: 630 km
right ascension of ascending node: 197.0568°
argument of perigee: 176.8292°
revolutions per day: 14.84147680
mean anomaly at epoch: 183.3053°
orbit number at epoch: 251

The dashed part of the orbit path shows where the satellite is in the earth's shadow,  

DLR